Latest Weather Observations for Albany Airport

IDW60801

Issued at 11:35 pm WST Thursday 23 October 2014 (issued every 30 minutes, with the page automatically refreshed every 10 minutes)

About weather observations | Map of weather stations | Latest weather observations for WA | Other Formats
Station Details ID: 009999 Name: ALBANY AIRPORT Lat: -34.94 Lon: 117.82 Height: 68.4 m
Data from the previous 72 hours. | See also: Recent months at Albany Airport
Date/Time
WST
Temp
°C
App
Temp
°C
Dew
Point
Rel
Hum
%
Delta-T
°C
Wind Press
QNH
hPa
Press
MSL
hPa
Rain
since 9 am
mm
Dir
 
Spd
km/h
Gust
km/h
Spd
kts
Gust
kts
23/11:30pm 12.0 10.8 11.6 97 0.2 WNW 9 11 5 6 1018.1 - 5.6
23/11:00pm 12.0 11.2 11.2 95 0.4 WNW 6 7 3 4 1018.0 - 5.6
23/10:30pm 12.3 10.3 11.4 94 0.5 WNW 13 15 7 8 1018.2 - 5.6
23/10:00pm 12.4 11.2 11.5 94 0.5 W 9 11 5 6 1018.1 - 5.6
23/09:30pm 11.6 10.6 11.0 96 0.3 WNW 7 11 4 6 1018.1 - 5.6
23/09:00pm 12.9 11.9 11.0 88 1.0 SW 7 11 4 6 1018.1 1018.2 5.6
23/08:30pm 13.1 11.8 11.2 88 1.0 WSW 9 11 5 6 1017.9 - 5.6
23/08:00pm 14.0 11.2 11.4 84 1.4 WSW 17 20 9 11 1017.7 - 5.6
23/07:30pm 14.3 11.9 11.3 82 1.6 WSW 15 20 8 11 1017.3 - 5.6
23/07:00pm 14.5 11.1 11.3 81 1.7 SW 20 28 11 15 1017.0 - 5.6
23/06:30pm 14.5 11.8 11.7 83 1.5 WSW 17 24 9 13 1016.7 - 5.6
23/06:00pm 14.7 11.7 12.5 87 1.2 WSW 20 26 11 14 1016.0 1016.1 5.6
23/05:36pm 14.7 12.1 13.3 91 0.8 WSW 19 28 10 15 1015.7 - 5.6
23/05:34pm 14.6 12.1 13.5 93 0.6 WSW 19 28 10 15 1015.6 - 5.6
23/05:30pm 14.7 12.1 13.3 91 0.8 WSW 19 28 10 15 1015.6 - 5.6
23/05:19pm 14.8 11.7 13.5 92 0.7 WSW 22 30 12 16 1015.4 - 5.6
23/05:00pm 15.0 11.5 13.4 90 0.9 WSW 24 37 13 20 1015.2 - 5.6
23/04:30pm 15.0 11.7 14.1 94 0.5 WSW 24 35 13 19 1014.8 - 5.6
23/04:00pm 15.2 11.4 14.7 97 0.3 WSW 28 43 15 23 1014.2 - 5.2
23/03:30pm 15.4 12.5 15.1 98 0.2 W 24 30 13 16 1013.6 - 4.6
23/03:00pm 15.6 12.7 15.1 97 0.3 W 24 35 13 19 1013.2 1013.2 2.0
23/02:30pm 15.7 12.0 15.0 96 0.4 W 28 37 15 20 1012.8 - 1.8
23/02:00pm 15.9 11.0 15.2 96 0.4 W 35 48 19 26 1012.4 - 1.2
23/01:30pm 16.0 11.6 15.1 94 0.5 W 32 48 17 26 1012.1 - 0.6
23/01:23pm 16.3 12.3 15.1 93 0.7 W 30 41 16 22 1012.1 - 0.2
23/01:03pm 17.5 12.3 14.6 83 1.7 W 35 54 19 29 1011.7 - 0.2
23/01:00pm 17.6 12.7 14.3 81 1.9 W 33 50 18 27 1011.7 - 0.2
23/12:35pm 17.6 13.6 15.2 86 1.4 W 30 50 16 27 1011.4 - 0.2
23/12:30pm 18.1 14.7 15.7 86 1.4 W 28 43 15 23 1011.4 - 0.2
23/12:21pm 17.9 13.1 15.5 86 1.4 W 35 50 19 27 1011.3 - 0.2
23/12:00pm 17.6 11.5 15.2 86 1.4 W 41 56 22 30 1011.2 1011.3 0.2
23/11:57am 17.6 11.5 15.2 86 1.4 W 41 56 22 30 1011.2 - 0.2
23/11:30am 20.0 15.6 15.1 73 2.9 W 32 44 17 24 1010.8 - 0.2
23/11:00am 19.2 14.6 14.6 74 2.7 W 32 48 17 26 1010.7 - 0.2
23/10:30am 20.7 17.4 14.9 69 3.4 W 26 41 14 22 1010.3 - 0.2
23/10:07am 19.8 15.0 14.1 69 3.3 W 32 50 17 27 1010.2 - 0.2
23/10:00am 19.6 14.1 13.5 68 3.5 WNW 35 50 19 27 1010.1 - 0.2
23/09:57am 20.1 15.3 14.1 68 3.5 WNW 32 50 17 27 1010.1 - 0.2
23/09:30am 20.1 14.6 13.7 66 3.7 WNW 35 48 19 26 1009.7 - 0.0
23/09:00am 19.3 13.7 13.3 68 3.4 WNW 35 46 19 25 1009.5 1009.6 16.4
23/08:30am 18.6 12.9 13.1 70 3.1 WNW 35 48 19 26 1009.4 - 16.4
23/08:00am 18.0 12.6 12.8 71 2.9 WNW 33 44 18 24 1009.4 - 16.4
23/07:30am 17.4 13.6 13.7 79 2.1 WNW 26 35 14 19 1009.3 - 16.4
23/07:00am 16.3 12.8 13.5 83 1.6 WNW 24 33 13 18 1009.3 - 16.4
23/06:30am 15.5 11.3 13.4 87 1.2 WNW 28 37 15 20 1009.2 - 16.4
23/06:00am 15.6 12.1 13.5 87 1.2 WNW 24 30 13 16 1009.1 1009.2 16.4
23/05:30am 15.6 13.1 14.0 90 0.9 WNW 20 28 11 15 1008.9 - 16.4
23/05:00am 15.8 13.2 14.8 94 0.6 WNW 22 28 12 15 1008.8 - 16.4
23/04:30am 16.0 13.1 15.0 94 0.6 WNW 24 35 13 19 1008.7 - 16.4
23/04:00am 15.8 12.9 15.1 96 0.4 WNW 24 32 13 17 1008.4 - 16.4
23/03:32am 15.9 13.5 15.4 97 0.3 WSW 22 32 12 17 1008.1 - 16.4
23/03:30am 15.9 13.0 15.2 96 0.4 W 24 33 13 18 1008.2 - 16.4
23/03:29am 15.9 13.0 15.2 96 0.4 W 24 33 13 18 1008.2 - 16.4
23/03:00am 15.9 14.6 15.7 99 0.1 WNW 17 20 9 11 1008.6 1008.7 16.0
23/02:30am 16.1 16.0 15.9 99 0.1 WNW 11 13 6 7 1008.5 - 16.0
23/02:05am 15.8 16.3 15.5 98 0.2 WNW 7 17 4 9 1008.8 - 15.8
23/02:00am 15.7 17.1 15.5 99 0.1 SSE 2 9 1 5 1008.7 - 15.8
23/01:57am 15.6 17.0 15.4 99 0.1 SSE 2 9 1 5 1008.6 - 15.8
23/01:30am 16.2 16.9 16.0 99 0.1 SSW 7 9 4 5 1009.0 - 15.8
23/01:16am 16.2 16.9 16.0 99 0.1 SSW 7 9 4 5 1009.1 - 15.8
23/01:00am 16.2 16.8 15.9 98 0.2 SSW 7 9 4 5 1009.1 - 15.8
23/12:38am 16.4 16.3 15.9 97 0.3 SW 11 17 6 9 1009.6 - 15.2
23/12:30am 16.2 17.0 15.9 98 0.2 NW 6 13 3 7 1009.9 - 14.8
23/12:10am 16.0 15.8 15.7 98 0.2 E 11 13 6 7 1009.9 - 14.4
23/12:00am 15.8 15.5 15.5 98 0.2 E 11 13 6 7 1010.1 1010.2 14.4
 
Date/Time
WST
Temp
°C
App
Temp
°C
Dew
Point
Rel
Hum
%
Delta-T
°C
Wind Press
QNH
hPa
Press
MSL
hPa
Rain
since 9 am
mm
Dir
 
Spd
km/h
Gust
km/h
Spd
kts
Gust
kts
22/11:50pm 16.2 16.8 15.3 94 0.5 SE 6 9 3 5 1010.1 - 14.2
22/11:49pm 16.2 16.8 15.3 94 0.5 SE 6 9 3 5 1010.1 - 13.6
22/11:30pm 16.1 16.1 15.2 94 0.5 S 9 17 5 9 1010.6 - 12.4
22/11:00pm 16.3 15.3 15.6 96 0.4 WNW 15 19 8 10 1011.8 - 9.2
22/10:59pm 16.3 15.3 15.6 96 0.4 NW 15 19 8 10 1011.8 - 9.2
22/10:48pm 16.3 16.3 15.1 93 0.7 ENE 9 17 5 9 1011.4 - 8.4
22/10:30pm 16.3 16.4 15.4 94 0.5 S 9 15 5 8 1010.8 - 8.4
22/10:25pm 16.8 17.3 15.6 93 0.7 SE 7 11 4 6 1011.7 - 4.0
22/10:08pm 17.4 16.6 15.2 87 1.3 E 13 24 7 13 1011.8 - 3.4
22/10:00pm 17.5 15.9 14.9 85 1.5 E 17 24 9 13 1011.9 - 3.4
22/09:49pm 17.0 13.4 15.3 90 1.0 S 28 39 15 21 1010.4 - 3.2
22/09:40pm 16.8 13.1 16.0 95 0.5 WNW 30 50 16 27 1013.2 - 1.4
22/09:39pm 16.8 13.5 16.0 95 0.5 WNW 28 41 15 22 1013.2 - 1.4
22/09:30pm 16.7 15.1 15.9 95 0.5 SE 19 26 10 14 1011.1 - 1.4
22/09:17pm 16.8 17.7 16.0 95 0.5 SSE 6 15 3 8 1011.7 - 1.4
22/09:00pm 17.0 16.4 15.6 91 0.8 ENE 13 20 7 11 1012.5 1012.5 1.4
22/08:43pm 16.9 15.1 15.5 91 0.8 ESE 19 24 10 13 1011.8 - 1.4
22/08:30pm 17.1 15.1 15.6 91 0.9 SE 20 26 11 14 1012.7 - 1.4
22/08:16pm 16.9 13.8 15.7 93 0.7 SW 26 30 14 16 1013.4 - 1.4
22/08:11pm 16.8 11.8 16.0 95 0.5 WNW 37 46 20 25 1015.0 - 1.4
22/08:08pm 16.8 12.5 16.0 95 0.5 NW 33 52 18 28 1014.8 - 1.4
22/08:07pm 16.9 13.2 15.9 94 0.6 NW 30 39 16 21 1014.5 - 1.4
22/08:00pm 16.8 14.8 15.6 93 0.7 E 20 26 11 14 1012.0 - 1.4
22/07:30pm 16.5 13.8 15.6 94 0.5 ESE 24 30 13 16 1010.6 - 1.4
22/07:24pm 16.5 13.8 15.5 94 0.6 ESE 24 30 13 16 1010.6 - 1.4
22/07:06pm 16.6 13.1 15.6 94 0.6 E 28 43 15 23 1010.7 - 1.2
22/07:00pm 16.7 14.7 15.5 93 0.7 E 20 30 11 16 1011.3 - 0.8
22/06:30pm 16.9 14.0 15.2 90 1.0 E 24 30 13 16 1011.9 - 0.2
22/06:00pm 17.4 13.6 14.6 83 1.6 ENE 28 37 15 20 1012.6 1012.6 0.0
22/05:30pm 17.6 14.6 14.7 83 1.7 E 24 35 13 19 1010.9 - 0.0
22/05:00pm 18.1 15.0 14.5 79 2.1 E 24 35 13 19 1010.8 - 0.0
22/04:30pm 19.0 15.1 14.5 75 2.6 E 28 37 15 20 1010.8 - 0.0
22/04:00pm 20.4 16.0 14.0 66 3.7 ENE 30 41 16 22 1012.2 - 0.0
22/03:30pm 20.8 16.0 14.5 67 3.7 E 33 44 18 24 1012.7 - 0.0
22/03:00pm 21.4 17.1 14.4 64 4.1 E 30 37 16 20 1013.3 1013.3 0.0
22/02:30pm 21.5 16.9 14.5 64 4.1 ENE 32 41 17 22 1013.7 - 0.0
22/02:00pm 21.5 16.9 14.5 64 4.1 E 32 39 17 21 1014.5 - 0.0
22/01:30pm 21.3 16.7 14.5 65 4.0 E 32 44 17 24 1014.9 - 0.0
22/01:00pm 21.2 17.3 14.4 65 4.0 E 28 39 15 21 1016.0 - 0.0
22/12:30pm 21.3 16.5 13.9 62 4.3 E 32 41 17 22 1016.6 - 0.0
22/12:00pm 21.3 16.8 13.9 62 4.3 ENE 30 39 16 21 1017.3 1017.4 0.0
22/11:30am 20.7 17.0 14.0 65 3.9 E 26 35 14 19 1017.8 - 0.0
22/11:00am 19.0 15.1 13.4 70 3.2 E 26 37 14 20 1018.4 - 0.0
22/10:30am 18.9 15.9 13.6 71 3.0 ENE 22 32 12 17 1019.4 - 0.0
22/10:00am 18.9 15.9 13.6 71 3.0 ENE 22 32 12 17 1019.4 - 0.0
22/09:30am 17.8 13.9 13.2 74 2.6 E 26 32 14 17 1019.8 - 0.0
22/09:00am 17.7 14.4 12.9 73 2.7 ENE 22 28 12 15 1020.3 1020.4 0.0
22/08:30am 17.3 13.6 12.8 75 2.5 ENE 24 33 13 18 1020.4 - 0.0
22/08:00am 16.1 13.1 12.7 80 1.9 ENE 20 30 11 16 1020.5 - 0.0
22/07:30am 15.4 12.9 12.3 82 1.7 E 17 24 9 13 1020.7 - 0.0
22/07:00am 14.4 12.2 12.0 85 1.3 E 15 24 8 13 1020.8 - 0.0
22/06:30am 13.3 11.7 11.6 89 0.9 E 11 13 6 7 1020.9 - 0.0
22/06:00am 13.0 10.2 11.3 89 0.9 ENE 17 20 9 11 1020.9 1021.0 0.0
22/05:30am 12.2 10.0 10.9 92 0.7 E 13 15 7 8 1021.0 - 0.0
22/05:00am 11.9 9.6 10.3 90 0.8 ENE 13 17 7 9 1020.9 - 0.0
22/04:30am 11.5 9.4 9.9 90 0.8 ENE 11 13 6 7 1021.0 - 0.0
22/04:00am 11.4 9.0 10.0 91 0.7 ENE 13 15 7 8 1021.2 - 0.0
22/03:30am 10.7 8.1 9.5 92 0.6 E 13 15 7 8 1021.3 - 0.0
22/03:00am 9.9 8.0 8.9 93 0.5 E 9 11 5 6 1021.4 1021.5 0.0
22/02:30am 9.0 6.5 8.0 93 0.5 ENE 11 13 6 7 1021.7 - 0.0
22/02:00am 9.7 7.6 8.3 91 0.7 ENE 9 13 5 7 1021.8 - 0.0
22/01:30am 9.1 6.2 8.1 93 0.5 E 13 17 7 9 1021.8 - 0.0
22/01:00am 9.1 5.7 7.8 92 0.6 ENE 15 17 8 9 1021.8 - 0.0
22/12:30am 9.0 6.4 7.7 91 0.6 ENE 11 11 6 6 1022.2 - 0.0
22/12:00am 9.5 6.9 7.6 88 0.9 ENE 11 13 6 7 1022.6 1022.7 0.0
 
Date/Time
WST
Temp
°C
App
Temp
°C
Dew
Point
Rel
Hum
%
Delta-T
°C
Wind Press
QNH
hPa
Press
MSL
hPa
Rain
since 9 am
mm
Dir
 
Spd
km/h
Gust
km/h
Spd
kts
Gust
kts
21/11:30pm 9.2 6.6 7.9 92 0.6 ENE 11 13 6 7 1022.7 - 0.0
21/11:00pm 9.3 7.1 7.8 90 0.7 E 9 11 5 6 1023.0 - 0.0
21/10:30pm 8.8 6.5 7.3 90 0.7 ENE 9 9 5 5 1023.4 - 0.0
21/10:00pm 9.3 7.1 7.8 90 0.7 E 9 13 5 7 1023.7 - 0.0
21/09:30pm 9.0 6.7 7.5 90 0.7 NE 9 11 5 6 1024.0 - 0.0
21/09:00pm 10.0 8.1 7.7 86 1.1 E 7 9 4 5 1024.1 1024.2 0.0
21/08:30pm 10.6 8.9 8.3 86 1.1 ESE 7 7 4 4 1024.5 - 0.0
21/08:00pm 10.3 8.1 7.8 84 1.2 ESE 9 11 5 6 1024.2 - 0.0
21/07:30pm 10.8 8.6 7.9 82 1.4 ESE 9 11 5 6 1024.1 - 0.0
21/07:00pm 12.5 10.8 8.2 75 2.1 SE 7 9 4 5 1023.9 - 0.0
21/06:30pm 13.0 10.5 8.4 73 2.3 S 11 15 6 8 1023.5 - 0.0
21/06:00pm 14.3 11.3 7.6 64 3.3 SSE 13 17 7 9 1023.2 1023.3 0.0
21/05:30pm 15.2 11.7 7.0 58 4.0 SSE 15 22 8 12 1022.9 - 0.0
21/05:00pm 15.8 12.3 7.3 57 4.2 SSE 15 22 8 12 1022.9 - 0.0
21/04:30pm 16.4 12.9 7.1 54 4.6 S 15 20 8 11 1022.8 - 0.0
21/04:00pm 16.9 13.4 7.3 53 4.8 S 15 19 8 10 1022.7 - 0.0
21/03:30pm 17.4 13.9 7.2 51 5.1 S 15 20 8 11 1022.7 - 0.0
21/03:00pm 17.5 13.7 7.6 52 5.0 SSW 17 24 9 13 1022.8 1022.9 0.0
21/02:30pm 17.6 14.3 6.4 47 5.5 S 13 20 7 11 1022.8 - 0.0
21/02:00pm 17.9 13.7 5.5 44 6.0 SSW 17 26 9 14 1022.9 - 0.0
21/01:30pm 17.3 14.3 7.6 53 4.9 SSW 13 24 7 13 1022.9 - 0.0
21/01:00pm 17.3 13.7 8.3 55 4.6 SSW 17 26 9 14 1023.0 - 0.0
21/12:30pm 16.9 13.2 8.0 55 4.5 SSW 17 26 9 14 1023.1 - 0.0
21/12:00pm 17.4 14.4 7.9 53 4.8 S 13 17 7 9 1023.1 1023.2 0.0
21/11:30am 17.8 14.4 7.7 51 5.1 WSW 15 22 8 12 1023.3 - 0.0
21/11:00am 16.3 12.4 7.0 54 4.6 SSW 17 30 9 16 1023.5 - 0.0
21/10:30am 16.2 11.9 7.1 55 4.5 SW 19 26 10 14 1023.7 - 0.0
21/10:00am 15.8 11.9 7.1 56 4.3 WSW 17 22 9 12 1023.5 - 0.0
21/09:30am 16.1 12.7 7.5 56 4.3 WSW 15 20 8 11 1023.2 - 0.0
21/09:00am 15.6 12.4 8.3 62 3.7 WSW 15 24 8 13 1022.9 1023.0 1.0
21/08:30am 15.1 11.6 8.8 66 3.2 W 17 26 9 14 1022.6 - 1.0
21/08:00am 14.7 12.0 10.5 76 2.2 W 15 20 8 11 1022.4 - 1.0
21/07:30am 13.9 11.9 11.5 85 1.3 WNW 13 17 7 9 1022.1 - 1.0
21/07:00am 13.0 11.8 11.7 92 0.7 WNW 9 13 5 7 1021.8 - 1.0
21/06:30am 12.5 11.2 11.4 93 0.6 WNW 9 13 5 7 1021.6 - 1.0
21/06:00am 12.1 10.4 11.1 94 0.5 NW 11 15 6 8 1021.2 1021.3 1.0
21/05:30am 11.9 10.6 11.3 96 0.3 WNW 9 13 5 7 1021.0 - 1.0
21/05:00am 11.8 10.2 11.4 97 0.2 NW 11 15 6 8 1020.5 - 1.0
21/04:30am 11.9 10.2 11.3 96 0.3 NW 11 13 6 7 1020.2 - 1.0
21/04:00am 11.9 10.3 11.5 97 0.2 WNW 11 13 6 7 1020.0 - 1.0
21/03:30am 12.0 10.8 11.6 97 0.2 WNW 9 11 5 6 1019.8 - 1.0
21/03:00am 12.0 10.7 11.4 96 0.3 WNW 9 11 5 6 1019.6 1019.7 1.0
21/02:30am 11.9 10.6 11.3 96 0.3 WNW 9 13 5 7 1019.6 - 1.0
21/02:00am 11.6 10.3 11.4 99 0.1 WNW 9 13 5 7 1019.5 - 1.0
21/01:30am 11.1 9.3 10.9 99 0.1 WNW 11 13 6 7 1019.2 - 1.0
21/01:00am 9.9 8.2 9.7 99 0.1 NW 9 11 5 6 1019.1 - 1.0
21/12:30am 10.9 10.7 10.3 96 0.3 W 2 6 1 3 1019.1 - 1.0
21/12:00am 12.1 11.1 11.1 94 0.5 WSW 7 9 4 5 1019.4 1019.5 1.0

Other Formats:

Comma delimited format used in spreadsheet applications
http://www.bom.gov.au/fwo/IDW60801/IDW60801.94802.axf

JavaScript Object Notation format (JSON) in row-major order
http://www.bom.gov.au/fwo/IDW60801/IDW60801.94802.json